sat.trackr.live / text

‹ back to catalog

YUNHAI-2 01C

NORAD 43911 · 2018-112C

PAYLOAD ACTIVE UNKNOWN

§ Identity

Operator
Country
PRC
Launch date
2018-12-29
Launch site
JSC
Launch vehicle
Mass (kg)
RCS (m²)

External: N2YO · Heavens-Above · Gunter

§ Orbital elements

Epoch: 2026-05-25T05:07:03.967968Z

Period
100.77 min
Inclination
50.0110°
Eccentricity
0.0000644
Mean motion
14.28986839 rev/d
Perigee alt
794.7 km
Apogee alt
795.6 km
Semi-major
7,173.3 km
B*
1.4796e-4
RAAN
84.9527°
Arg perigee
37.3128°
Mean anomaly
322.7832°
Rev number
38,850

§ Raw data

YUNHAI-2 01C1 43911U 18112C   26145.21324037  .00000215  00000+0  14796-3 0  99982 43911  50.0110  84.9527 0000644  37.3128 322.7832 14.28986839388509

JSON: /api/v1/satellites/43911 · /tle

For live sub-satellite position, see the globe view (requires WebGL).

§ Visibility from observer

Set your observer location to see the next 7 days of passes ≥ 10°. The values pass through the URL so the page stays shareable.

No JS? Fill the form by hand. The geolocation button needs JavaScript.